User: anonymous   Login
Location: Unspecified
(0.0000°N, 0.0000°E)
Time: 15:11:00
(UTC+00:00)
Language:

CUTE 1.7 + AOD 2 - Orbit

View from above orbital plane
View from above orbital plane
View from above satellite
View from above satellite

Ground track
Ground track

The orbit data is extracted from the following two-line orbital elements,

1 32785U 08021C   16274.16635620  .00000661  00000-0  78297-4 0  9995
2 32785  97.5943 303.9705 0012020 314.3947  45.6284 14.87674482456237
Epoch (UTC): 30 September 2016 03:59:33
Eccentricity: 0.0012020
inclination: 97.5943°
perigee height: 597 km
apogee height: 613 km
right ascension of ascending node: 303.9705°
argument of perigee: 314.3947°
revolutions per day: 14.87674482
mean anomaly at epoch: 45.6284°
orbit number at epoch: 45623

The dashed part of the orbit path shows where the satellite is in the earth's shadow,  

DLR